When you browse on this site, cookies collect data to enhance your experience and personalize the content and advertising you see.
Visit our Privacy Policy to learn more. By continuing to use the site, you agree to this use of cookies and data.
  • In Latvia
  • List of Countries
  • For 7 days
  • Water Temperature
  • Weather Map
  • Weather Widgets
  • user-avatar
    Login

    Hourly Weather Kapan

    Today, 26 August, Monday

    Time Temperature Precipitation Wind Pressure Humidity
    00:00 +22°C° 0 mm 1 mps 684 mmHg 51%
    01:00 +22°C° 0 mm 1 mps 684 mmHg 51%
    02:00 +22°C° 0 mm 1 mps 684 mmHg 50%
    03:00 +22°C° 0 mm 1 mps 685 mmHg 49%
    04:00 +22°C° 0 mm 1 mps 685 mmHg 49%
    05:00 +22°C° 0 mm 1 mps 685 mmHg 49%
    06:00 +22°C° 0 mm 1 mps 685 mmHg 49%
    07:00 +24°C° 0 mm 1 mps 686 mmHg 42%
    08:00 +26°C° 0 mm 2 mps 686 mmHg 36%
    09:00 +28°C° 0 mm 3 mps 687 mmHg 29%
    10:00 +29°C° 0 mm 3 mps 686 mmHg 27%
    11:00 +31°C° 0 mm 3 mps 686 mmHg 24%
    12:00 +33°C° 0 mm 4 mps 686 mmHg 21%
    13:00 +33°C° 0 mm 4 mps 686 mmHg 21%
    14:00 +33°C° 0 mm 4 mps 685 mmHg 21%
    15:00 +33°C° 0 mm 5 mps 685 mmHg 21%
    16:00 +30°C° 0 mm 4 mps 685 mmHg 24%
    17:00 +29°C° 0 mm 4 mps 685 mmHg 28%
    18:00 +27°C° 0 mm 4 mps 685 mmHg 31%
    19:00 +25°C° 0 mm 3 mps 685 mmHg 39%
    20:00 +22°C° 0 mm 3 mps 685 mmHg 46%
    21:00 +19°C° 0 mm 2 mps 685 mmHg 54%
    22:00 +19°C° 0 mm 2 mps 685 mmHg 55%
    23:00 +18°C° 0 mm 2 mps 686 mmHg 56%

    Tomorrow, 27 August, Tuesday

    Time Temperature Precipitation Wind Pressure Humidity
    00:00 +18°C° 0 mm 2 mps 686 mmHg 57%
    01:00 +18°C° 0 mm 2 mps 686 mmHg 57%
    02:00 +19°C° 0 mm 1 mps 686 mmHg 56%
    03:00 +18°C° 0 mm 1 mps 686 mmHg 56%
    04:00 +19°C° 0 mm 1 mps 686 mmHg 54%
    05:00 +19°C° 0 mm 1 mps 686 mmHg 53%
    06:00 +19°C° 0 mm 1 mps 686 mmHg 52%
    07:00 +21°C° 0 mm 1 mps 686 mmHg 46%
    08:00 +24°C° 0 mm 2 mps 686 mmHg 41%
    09:00 +26°C° 0 mm 2 mps 687 mmHg 36%
    10:00 +27°C° 0 mm 3 mps 686 mmHg 34%
    11:00 +28°C° 0 mm 3 mps 686 mmHg 32%
    12:00 +30°C° 0 mm 4 mps 686 mmHg 30%
    13:00 +30°C° 0 mm 4 mps 685 mmHg 30%
    14:00 +30°C° 0 mm 4 mps 685 mmHg 30%
    15:00 +32°C° 0 mm 4 mps 684 mmHg 29%
    16:00 +29°C° 0 mm 3 mps 684 mmHg 34%
    17:00 +28°C° 0 mm 3 mps 683 mmHg 38%
    18:00 +27°C° 0 mm 2 mps 683 mmHg 42%
    19:00 +25°C° 0 mm 2 mps 683 mmHg 49%
    20:00 +23°C° 0 mm 2 mps 683 mmHg 56%
    21:00 +21°C° 0 mm 1 mps 683 mmHg 63%
    22:00 +21°C° 0 mm 1 mps 683 mmHg 65%
    23:00 +19°C° 0 mm 2 mps 683 mmHg 66%

    Day after tomorrow, 28 August, Wednesday

    Time Temperature Precipitation Wind Pressure Humidity
    00:00 +19°C° 0 mm 2 mps 683 mmHg 68%
    01:00 +19°C° 0 mm 2 mps 683 mmHg 68%
    02:00 +20°C° 0 mm 1 mps 683 mmHg 67%
    03:00 +20°C° 0 mm 1 mps 683 mmHg 66%
    04:00 +20°C° 0 mm 1 mps 683 mmHg 65%
    05:00 +20°C° 0 mm 1 mps 683 mmHg 65%
    06:00 +20°C° 0 mm 1 mps 684 mmHg 64%
    07:00 +22°C° 0 mm 1 mps 684 mmHg 56%
    08:00 +25°C° 0 mm 2 mps 685 mmHg 48%
    09:00 +27°C° 0 mm 2 mps 685 mmHg 40%
    10:00 +28°C° 0 mm 3 mps 685 mmHg 35%
    11:00 +29°C° 0 mm 3 mps 685 mmHg 31%
    12:00 +32°C° 0 mm 4 mps 685 mmHg 26%
    13:00 +32°C° 0 mm 4 mps 684 mmHg 25%
    14:00 +32°C° 0 mm 4 mps 684 mmHg 24%
    15:00 +33°C° 0 mm 4 mps 684 mmHg 23%
    16:00 +30°C° 0 mm 3 mps 683 mmHg 27%
    17:00 +29°C° 0 mm 3 mps 683 mmHg 30%
    18:00 +27°C° 0 mm 3 mps 683 mmHg 34%
    19:00 +25°C° 0 mm 2 mps 683 mmHg 40%
    20:00 +23°C° 0 mm 2 mps 683 mmHg 46%
    21:00 +21°C° 0 mm 1 mps 684 mmHg 52%
    22:00 +21°C° 0 mm 1 mps 684 mmHg 53%
    23:00 +21°C° 0 mm 1 mps 684 mmHg 54%

    29 August, Thursday

    Time Temperature Precipitation Wind Pressure Humidity
    00:00 +20°C° 0 mm 1 mps 684 mmHg 55%
    01:00 +20°C° 0 mm 1 mps 684 mmHg 55%
    02:00 +20°C° 0 mm 1 mps 684 mmHg 55%
    03:00 +20°C° 0 mm 1 mps 684 mmHg 55%
    04:00 +20°C° 0 mm 1 mps 684 mmHg 54%
    05:00 +20°C° 0 mm 1 mps 684 mmHg 54%
    06:00 +21°C° 0 mm 1 mps 684 mmHg 53%
    07:00 +23°C° 0 mm 1 mps 685 mmHg 46%
    08:00 +25°C° 0 mm 2 mps 685 mmHg 40%
    09:00 +28°C° 0 mm 2 mps 685 mmHg 34%
    10:00 +29°C° 0 mm 3 mps 685 mmHg 32%
    11:00 +30°C° 0 mm 3 mps 685 mmHg 29%
    12:00 +33°C° 0 mm 4 mps 685 mmHg 27%
    13:00 +33°C° 0 mm 4 mps 684 mmHg 28%
    14:00 +33°C° 0 mm 4 mps 684 mmHg 29%
    15:00 +33°C° 0 mm 4 mps 683 mmHg 30%
    16:00 +30°C° 0 mm 3 mps 683 mmHg 34%
    17:00 +29°C° 0 mm 3 mps 683 mmHg 39%
    18:00 +27°C° 0 mm 2 mps 683 mmHg 44%
    19:00 +25°C° 0 mm 2 mps 684 mmHg 50%
    20:00 +24°C° 0 mm 1 mps 684 mmHg 57%
    21:00 +22°C° 0 mm 1 mps 684 mmHg 64%
    22:00 +21°C° 0 mm 1 mps 684 mmHg 70%
    23:00 +21°C° 0 mm 1 mps 684 mmHg 75%

    30 August, Friday

    Time Temperature Precipitation Wind Pressure Humidity
    00:00 +20°C° 0 mm 1 mps 683 mmHg 80%
    01:00 +20°C° 0 mm 1 mps 683 mmHg 81%
    02:00 +19°C° 0 mm 1 mps 683 mmHg 81%
    03:00 +17°C° 0 mm 0 mps 683 mmHg 82%
    04:00 +17°C° 0.1 mm 0 mps 683 mmHg 82%
    05:00 +18°C° 0.1 mm 0 mps 683 mmHg 83%
    06:00 +18°C° 0.1 mm 0 mps 683 mmHg 83%
    07:00 +21°C° 0.1 mm 1 mps 684 mmHg 77%
    08:00 +23°C° 0.1 mm 1 mps 684 mmHg 71%
    09:00 +24°C° 0.1 mm 2 mps 684 mmHg 65%
    10:00 +25°C° 0.1 mm 2 mps 683 mmHg 64%
    11:00 +25°C° 0.1 mm 3 mps 683 mmHg 62%
    12:00 +26°C° 0.1 mm 4 mps 683 mmHg 61%
    13:00 +25°C° 0.6 mm 4 mps 682 mmHg 65%
    14:00 +23°C° 0.6 mm 4 mps 682 mmHg 70%
    15:00 +22°C° 0.6 mm 3 mps 682 mmHg 74%
    16:00 +22°C° 0 mm 3 mps 681 mmHg 77%
    17:00 +21°C° 0 mm 3 mps 681 mmHg 79%
    18:00 +21°C° 0 mm 2 mps 681 mmHg 82%
    19:00 +20°C° 0.1 mm 2 mps 681 mmHg 85%
    20:00 +20°C° 0.1 mm 3 mps 681 mmHg 88%
    21:00 +19°C° 0.1 mm 3 mps 682 mmHg 91%
    22:00 +19°C° 0 mm 3 mps 682 mmHg 92%
    23:00 +18°C° 0 mm 2 mps 682 mmHg 93%

    31 August, Saturday

    Time Temperature Precipitation Wind Pressure Humidity
    00:00 +18°C° 0 mm 2 mps 682 mmHg 93%
    01:00 +18°C° 0 mm 2 mps 682 mmHg 92%
    02:00 +19°C° 0 mm 1 mps 682 mmHg 92%
    03:00 +18°C° 0 mm 1 mps 682 mmHg 91%
    04:00 +18°C° 0 mm 1 mps 682 mmHg 91%
    05:00 +18°C° 0 mm 1 mps 682 mmHg 90%
    06:00 +18°C° 0 mm 1 mps 682 mmHg 90%
    07:00 +19°C° 0 mm 1 mps 682 mmHg 86%
    08:00 +19°C° 0 mm 2 mps 682 mmHg 82%
    09:00 +19°C° 0 mm 2 mps 682 mmHg 78%
    10:00 +20°C° 0 mm 2 mps 682 mmHg 73%
    11:00 +21°C° 0 mm 3 mps 682 mmHg 68%
    12:00 +22°C° 0 mm 3 mps 682 mmHg 63%
    13:00 +22°C° 0 mm 3 mps 682 mmHg 66%
    14:00 +21°C° 0 mm 3 mps 681 mmHg 68%
    15:00 +21°C° 0 mm 4 mps 681 mmHg 70%
    16:00 +20°C° 0 mm 3 mps 681 mmHg 75%
    17:00 +19°C° 0 mm 3 mps 682 mmHg 81%
    18:00 +18°C° 0 mm 3 mps 682 mmHg 86%
    19:00 +17°C° 0.1 mm 3 mps 682 mmHg 87%
    20:00 +17°C° 0.1 mm 2 mps 683 mmHg 88%
    21:00 +17°C° 0.1 mm 2 mps 684 mmHg 89%
    22:00 +16°C° 0 mm 2 mps 684 mmHg 89%
    23:00 +16°C° 0 mm 2 mps 684 mmHg 90%
    Show more